Volver al catálogo

TeikyoSat 4

TEIKYOSAT-4

ActivoRadioaficionadoSSO
NORAD 49396·PAYLOAD·🇯🇵 Japan

Lanzado Nov 9, 2021 desde Uchinoura Space Center

Loading…

Próximos Pases (próximas 24 horas)

TLE

ActualizadoSource: AMSAT

Época: Sep 14, 2026, 01:43 UTC

1 49396U 21102B   26257.07210072  .00001382  00000-0  89264-4 0  9995
2 49396  97.3629 283.0948 0011702 355.1823   4.9292 15.09771114266131

Sigue TeikyoSat 4 en tiempo real con AllMySat

Download on the App Store